Tracking 19572 objects as of 23-Feb-2019
HD Live streaming from Space Station
objects crossing your sky now

SL-16 DEB

Track SL-16 DEB now!
10-day predictions


NORAD ID: 39897
Int'l Code: 1993-016BX
Perigee: 732.4 km
Apogee: 912.4 km
Inclination: 70.9 °
Period: 101.2 minutes
Semi major axis: 7193 km
RCS: 0.0057 m2 (small)
Launch date: March 26, 1993
Source: Commonwealth of Independent States (former USSR) (CIS)
Launch site: TYURATAM MISSILE AND SPACE COMPLEX (TTMTR)

Note: This is SATELLITE DEBRIS
aabbcc
Your satellite tracking list
Your tracking list is empty




NASA's NSSDC Master Catalog

Two Line Element Set (TLE):
1 39897U 93016BX  19042.08568190  .00001526  00000-0  64548-3 0  9992
2 39897  70.9478 197.6246 0125127 310.4056  48.6204 14.22984667461043
Source of the keplerian elements: AFSPC